,,PA_Meas_PMT16A,,PR_Meas_QMR101_102,,RH_Meas_QMH101,,SR_Meas_QMS101,,TA_Meas_QMH101,,GenWind,,GenWind,
time,status,PA,status,PR,status,RH,status,SR,status,TA,status,DirAvg,status,SpdAvg,
2010-05-16, 00:00:05,VALID,915.507,VALID,0,VALID,94.4465,VALID,0,VALID,21.3396,VALID,329,VALID,1.49023,
2010-05-16, 00:01:05,VALID,915.492,VALID,0,VALID,94.294,VALID,0,VALID,21.3981,VALID,122,VALID,0.767969,
2010-05-16, 00:02:05,VALID,915.533,VALID,0,VALID,94.2559,VALID,0,VALID,21.3786,VALID,121,VALID,0.857422,
2010-05-16, 00:03:05,VALID,915.524,VALID,0,VALID,94.1797,VALID,0,VALID,21.3786,VALID,283,VALID,1.08711,
2010-05-16, 00:04:05,VALID,915.52,VALID,0,VALID,94.2559,VALID,0,VALID,21.3786,VALID,292,VALID,0.756641,
2010-05-16, 00:05:05,VALID,915.556,VALID,0,VALID,94.3474,VALID,0,VALID,21.3591,VALID,42,VALID,0.61875,
2010-05-16, 00:06:05,VALID,915.449,VALID,0,VALID,94.3703,VALID,0,VALID,21.3591,VALID,35,VALID,2.17266,
2010-05-16, 00:07:05,VALID,915.483,VALID,0,VALID,94.5532,VALID,0,VALID,21.3396,VALID,354,VALID,0.483203,
2010-05-16, 00:08:05,VALID,915.42,VALID,0,VALID,94.5304,VALID,0,VALID,21.3006,VALID,198,VALID,0.471484,
2010-05-16, 00:09:05,VALID,915.468,VALID,0,VALID,94.538,VALID,0,VALID,21.3006,VALID,193,VALID,0.652734,
2010-05-16, 00:10:05,VALID,915.422,VALID,0,VALID,94.1263,VALID,0,VALID,21.3412,VALID,335,VALID,1.79492,
2010-05-16, 00:11:05,VALID,915.329,VALID,0,VALID,93.8214,VALID,0,VALID,21.3396,VALID,32,VALID,0.569922,
2010-05-16, 00:12:05,VALID,915.378,VALID,0,VALID,93.7985,VALID,0.107441,VALID,21.3591,VALID,62,VALID,0.637891,
2010-05-16, 00:13:05,VALID,915.268,VALID,0,VALID,93.829,VALID,0,VALID,21.3591,VALID,48,VALID,1.59648,
2010-05-16, 00:14:05,VALID,915.28,VALID,0,VALID,93.829,VALID,0,VALID,21.3006,VALID,249,VALID,1.31445,
2010-05-16, 00:15:05,VALID,915.229,VALID,0,VALID,93.7147,VALID,0,VALID,21.3201,VALID,79,VALID,1.05039,
2010-05-16, 00:16:05,VALID,915.199,VALID,0,VALID,93.6994,VALID,0,VALID,21.3201,VALID,138,VALID,0.856641,
2010-05-16, 00:17:05,VALID,915.188,VALID,0,VALID,93.8138,VALID,0,VALID,21.3006,VALID,61,VALID,0.717969,
2010-05-16, 00:18:05,VALID,915.229,VALID,0,VALID,93.9967,VALID,0,VALID,21.3006,VALID,308,VALID,0.683594,
2010-05-16, 00:19:05,VALID,915.175,VALID,0,VALID,94.0653,VALID,0,VALID,21.2811,VALID,127,VALID,0.733594,
2010-05-16, 00:20:05,VALID,915.148,VALID,0,VALID,94.2407,VALID,0,VALID,21.2811,VALID,51,VALID,0.725781,
2010-05-16, 00:21:05,VALID,915.138,VALID,0,VALID,94.3855,VALID,0,VALID,21.2616,VALID,52,VALID,0.591797,
2010-05-16, 00:22:05,VALID,915.027,VALID,0,VALID,94.5151,VALID,0,VALID,21.2421,VALID,20,VALID,0.739062,
2010-05-16, 00:23:05,VALID,915.043,VALID,0,VALID,94.5609,VALID,0,VALID,21.2226,VALID,21,VALID,0.7375,
2010-05-16, 00:24:05,VALID,915.027,VALID,0,VALID,94.7133,VALID,0,VALID,21.2226,VALID,44,VALID,1.18633,
2010-05-16, 00:25:05,VALID,914.946,VALID,0,VALID,94.7667,VALID,0,VALID,21.2226,VALID,30,VALID,1.28242,
2010-05-16, 00:26:05,VALID,914.947,VALID,0,VALID,94.7972,VALID,0,VALID,21.2226,VALID,276,VALID,0.864062,
2010-05-16, 00:27:05,VALID,914.922,VALID,0,VALID,94.7972,VALID,0,VALID,21.2226,VALID,13,VALID,1.9793,
2010-05-16, 00:28:05,VALID,914.915,VALID,0,VALID,94.7133,VALID,0,VALID,21.2226,VALID,24,VALID,1.62695,
2010-05-16, 00:29:05,VALID,914.898,VALID,0,VALID,94.6981,VALID,0,VALID,21.2632,VALID,55,VALID,1.58125,
2010-05-16, 00:30:05,VALID,914.941,VALID,0,VALID,94.6828,VALID,0,VALID,21.2616,VALID,7,VALID,1.17305,
2010-05-16, 00:31:05,VALID,914.909,VALID,0,VALID,94.82,VALID,0,VALID,21.2421,VALID,59,VALID,1.19766,
2010-05-16, 00:32:05,VALID,914.921,VALID,0,VALID,94.9268,VALID,0,VALID,21.2226,VALID,256,VALID,0.164844,
2010-05-16, 00:33:05,VALID,914.888,VALID,0,VALID,94.8658,VALID,0,VALID,21.2031,VALID,22,VALID,2.19297,
2010-05-16, 00:34:05,VALID,914.905,VALID,0,VALID,94.9268,VALID,0,VALID,21.2031,VALID,48,VALID,1.32813,
2010-05-16, 00:35:05,VALID,914.939,VALID,0,VALID,94.9496,VALID,0,VALID,21.2226,VALID,49,VALID,1.14414,
2010-05-16, 00:36:05,VALID,914.864,VALID,0,VALID,95.003,VALID,0,VALID,21.2226,VALID,46,VALID,2.04336,
2010-05-16, 00:37:05,VALID,914.912,VALID,0,VALID,94.9268,VALID,0,VALID,21.2031,VALID,40,VALID,1.91914,
2010-05-16, 00:38:05,VALID,914.875,VALID,0,VALID,94.8353,VALID,0,VALID,21.1836,VALID,18,VALID,1.28945,
2010-05-16, 00:39:05,VALID,914.867,VALID,0,VALID,94.9268,VALID,0,VALID,21.2031,VALID,17,VALID,2.37188,
2010-05-16, 00:40:05,VALID,914.89,VALID,0,VALID,94.9801,VALID,0,VALID,21.1836,VALID,34,VALID,1.13086,
2010-05-16, 00:41:05,VALID,914.832,VALID,0,VALID,95.0488,VALID,0,VALID,21.1836,VALID,28,VALID,1.25586,
2010-05-16, 00:42:05,VALID,914.8,VALID,0,VALID,95.1097,VALID,0.107441,VALID,21.164,VALID,337,VALID,1.05313,
2010-05-16, 00:43:05,VALID,914.776,VALID,0,VALID,95.1021,VALID,0.107441,VALID,21.1445,VALID,351,VALID,1.47266,
2010-05-16, 00:44:05,VALID,914.754,VALID,0,VALID,95.1326,VALID,0,VALID,21.1461,VALID,32,VALID,2.26367,
2010-05-16, 00:45:05,VALID,914.707,VALID,0,VALID,95.1021,VALID,0,VALID,21.1673,VALID,27,VALID,2.61016,
2010-05-16, 00:46:05,VALID,914.727,VALID,0,VALID,95.003,VALID,0,VALID,21.1657,VALID,39,VALID,2.29883,
2010-05-16, 00:47:05,VALID,914.786,VALID,0,VALID,95.0488,VALID,0,VALID,21.2063,VALID,12,VALID,1.98477,
2010-05-16, 00:48:05,VALID,914.755,VALID,0,VALID,95.1479,VALID,0,VALID,21.1852,VALID,28,VALID,1.94766,
2010-05-16, 00:49:05,VALID,914.807,VALID,0,VALID,95.2012,VALID,0,VALID,21.1852,VALID,11,VALID,1.41523,
2010-05-16, 00:50:05,VALID,914.758,VALID,0,VALID,95.2317,VALID,0,VALID,21.1852,VALID,25,VALID,1.84922,
2010-05-16, 00:51:05,VALID,914.774,VALID,0,VALID,95.3308,VALID,0,VALID,21.1868,VALID,40,VALID,1.425,
2010-05-16, 00:52:05,VALID,914.767,VALID,0,VALID,95.4071,VALID,0,VALID,21.2063,VALID,40,VALID,0.805469,
2010-05-16, 00:53:05,VALID,914.767,VALID,0,VALID,95.468,VALID,0,VALID,21.1461,VALID,7,VALID,1.73711,
2010-05-16, 00:54:05,VALID,914.734,VALID,0,VALID,95.5671,VALID,0,VALID,21.1657,VALID,13,VALID,1.80352,
2010-05-16, 00:55:05,VALID,914.725,VALID,0,VALID,95.6586,VALID,0,VALID,21.1673,VALID,35,VALID,1.82383,
2010-05-16, 00:56:05,VALID,914.717,VALID,0,VALID,95.7044,VALID,0,VALID,21.1266,VALID,16,VALID,1.71211,
2010-05-16, 00:57:05,VALID,914.747,VALID,0,VALID,95.7882,VALID,0,VALID,21.1673,VALID,22,VALID,2.17305,
2010-05-16, 00:58:05,VALID,914.736,VALID,0,VALID,95.8568,VALID,0,VALID,21.1266,VALID,15,VALID,2.14375,
2010-05-16, 00:59:05,VALID,914.746,VALID,0,VALID,95.9026,VALID,0,VALID,21.1055,VALID,71,VALID,0.780469,
2010-05-16, 01:00:05,VALID,914.686,VALID,0,VALID,95.9407,VALID,0,VALID,21.125,VALID,60,VALID,1.53984,
2010-05-16, 01:01:05,VALID,914.708,VALID,0,VALID,95.9712,VALID,0,VALID,21.125,VALID,33,VALID,0.739844,
2010-05-16, 01:02:05,VALID,914.674,VALID,0,VALID,95.9788,VALID,0,VALID,21.1055,VALID,35,VALID,0.219922,
2010-05-16, 01:03:05,VALID,914.689,VALID,0,VALID,95.9941,VALID,0,VALID,21.1055,VALID,35,VALID,0.729688,
2010-05-16, 01:04:05,VALID,914.674,VALID,0,VALID,95.9864,VALID,0,VALID,21.1055,VALID,45,VALID,0.932422,
2010-05-16, 01:05:05,VALID,914.755,VALID,0,VALID,95.9636,VALID,0,VALID,21.1055,VALID,351,VALID,0.425781,
2010-05-16, 01:06:05,VALID,914.716,VALID,0,VALID,95.9788,VALID,0,VALID,21.1055,VALID,28,VALID,1.48672,
2010-05-16, 01:07:05,VALID,914.724,VALID,0,VALID,95.9483,VALID,0,VALID,21.1055,VALID,28,VALID,1.28203,
2010-05-16, 01:08:05,VALID,914.729,VALID,0,VALID,95.9483,VALID,0,VALID,21.086,VALID,21,VALID,2.23164,
2010-05-16, 01:09:05,VALID,914.71,VALID,0,VALID,96.0017,VALID,0,VALID,21.1055,VALID,14,VALID,1.90156,
2010-05-16, 01:10:05,VALID,914.682,VALID,0,VALID,95.9941,VALID,0,VALID,21.086,VALID,352,VALID,0.920313,
2010-05-16, 01:11:05,VALID,914.683,VALID,0,VALID,95.9788,VALID,0.107441,VALID,21.125,VALID,22,VALID,1.90391,
2010-05-16, 01:12:05,VALID,914.71,VALID,0,VALID,96.0017,VALID,0,VALID,21.1266,VALID,8,VALID,1.50937,
2010-05-16, 01:13:05,VALID,914.705,VALID,0,VALID,95.9788,VALID,0,VALID,21.1266,VALID,32,VALID,1.39766,
2010-05-16, 01:14:05,VALID,914.733,VALID,0,VALID,95.9483,VALID,0,VALID,21.1445,VALID,33,VALID,1.00742,
2010-05-16, 01:15:05,VALID,914.67,VALID,0,VALID,95.9254,VALID,0,VALID,21.1461,VALID,21,VALID,1.20586,
2010-05-16, 01:16:05,VALID,914.687,VALID,0,VALID,95.895,VALID,0,VALID,21.1445,VALID,47,VALID,1.29688,
2010-05-16, 01:17:05,VALID,914.62,VALID,0,VALID,95.834,VALID,0,VALID,21.1852,VALID,13,VALID,1.97422,
2010-05-16, 01:18:05,VALID,914.666,VALID,0,VALID,95.8873,VALID,0,VALID,21.1445,VALID,37,VALID,1.42109,
2010-05-16, 01:19:05,VALID,914.652,VALID,0,VALID,95.9254,VALID,0,VALID,21.1445,VALID,50,VALID,0.36875,
2010-05-16, 01:20:05,VALID,914.635,VALID,0,VALID,95.9636,VALID,0,VALID,21.1445,VALID,50,VALID,1.20469,
2010-05-16, 01:21:05,VALID,914.62,VALID,0,VALID,95.9636,VALID,0,VALID,21.125,VALID,49,VALID,1.05664,
2010-05-16, 01:22:05,VALID,914.639,VALID,0,VALID,95.9483,VALID,0,VALID,21.125,VALID,49,VALID,1.03008,
2010-05-16, 01:23:05,VALID,914.583,VALID,0,VALID,96.0017,VALID,0,VALID,21.1266,VALID,49,VALID,0.891797,
2010-05-16, 01:24:05,VALID,914.533,VALID,0,VALID,96.0474,VALID,0,VALID,21.1055,VALID,11,VALID,0.984375,
2010-05-16, 01:25:05,VALID,914.508,VALID,0,VALID,96.0703,VALID,0,VALID,21.1055,VALID,49,VALID,0.376953,
2010-05-16, 01:26:05,VALID,914.412,VALID,0,VALID,96.0703,VALID,0,VALID,21.1461,VALID,38,VALID,1.89727,
2010-05-16, 01:27:05,VALID,914.459,VALID,0,VALID,96.0398,VALID,0,VALID,21.125,VALID,350,VALID,1.08008,
2010-05-16, 01:28:05,VALID,914.448,VALID,0,VALID,95.9864,VALID,0,VALID,21.164,VALID,21,VALID,1.46484,
2010-05-16, 01:29:05,VALID,914.44,VALID,0,VALID,95.9559,VALID,0,VALID,21.1445,VALID,19,VALID,1.8793,
2010-05-16, 01:30:05,VALID,914.421,VALID,0,VALID,95.9788,VALID,0,VALID,21.164,VALID,4,VALID,1.11641,
2010-05-16, 01:31:05,VALID,914.425,VALID,0,VALID,95.9788,VALID,0,VALID,21.1445,VALID,4,VALID,0.955469,
2010-05-16, 01:32:05,VALID,914.428,VALID,0,VALID,96.0169,VALID,0,VALID,21.1657,VALID,4,VALID,0.948828,
2010-05-16, 01:33:05,VALID,914.423,VALID,0,VALID,96.0245,VALID,0,VALID,21.1445,VALID,4,VALID,0.178516,
2010-05-16, 01:34:05,VALID,914.396,VALID,0,VALID,96.0779,VALID,0,VALID,21.1461,VALID,4,VALID,0.769922,
2010-05-16, 01:35:05,VALID,914.356,VALID,0,VALID,96.0855,VALID,0,VALID,21.1461,VALID,4,VALID,0.767969,
2010-05-16, 01:36:05,VALID,914.327,VALID,0,VALID,96.1313,VALID,0,VALID,21.1055,VALID,4,VALID,1.00977,
2010-05-16, 01:37:05,VALID,914.309,VALID,0,VALID,96.177,VALID,0,VALID,21.1266,VALID,4,VALID,1.10547,
2010-05-16, 01:38:05,VALID,914.313,VALID,0,VALID,96.2304,VALID,0,VALID,21.086,VALID,4,VALID,0.880859,
2010-05-16, 01:39:05,VALID,914.237,VALID,0,VALID,96.2685,VALID,0,VALID,21.1071,VALID,4,VALID,0.880469,
2010-05-16, 01:40:05,VALID,914.226,VALID,0,VALID,96.299,VALID,0,VALID,21.1071,VALID,4,VALID,0.878516,
2010-05-16, 01:41:05,VALID,914.27,VALID,0,VALID,96.3219,VALID,0,VALID,21.1071,VALID,4,VALID,0.346484,
2010-05-16, 01:42:05,VALID,914.233,VALID,0,VALID,96.3142,VALID,0,VALID,21.0665,VALID,4,VALID,0.449609,
2010-05-16, 01:43:05,VALID,914.24,VALID,0,VALID,96.3066,VALID,0,VALID,21.0876,VALID,4,VALID,0.763281,
2010-05-16, 01:44:05,VALID,914.173,VALID,0,VALID,96.3371,VALID,0,VALID,21.0681,VALID,4,VALID,0.18125,
2010-05-16, 01:45:05,VALID,914.132,VALID,0,VALID,96.3371,VALID,0,VALID,21.0275,VALID,4,VALID,0.644141,
2010-05-16, 01:46:05,VALID,914.1,VALID,0,VALID,96.3371,VALID,0,VALID,21.047,VALID,3,VALID,1.11602,
2010-05-16, 01:47:05,VALID,914.105,VALID,0,VALID,96.3371,VALID,0,VALID,21.0275,VALID,3,VALID,0.498047,
2010-05-16, 01:48:05,VALID,914.089,VALID,0,VALID,96.3142,VALID,0,VALID,21.0486,VALID,3,VALID,0.873047,
2010-05-16, 01:49:05,VALID,914.052,VALID,0,VALID,96.3295,VALID,0,VALID,21.008,VALID,3,VALID,0.431641,
2010-05-16, 01:50:05,VALID,914.027,VALID,0,VALID,96.3219,VALID,0,VALID,21.008,VALID,3,VALID,0.245703,
2010-05-16, 01:51:05,VALID,913.997,VALID,0,VALID,96.3447,VALID,0,VALID,21.008,VALID,3,VALID,0,
2010-05-16, 01:52:05,VALID,913.966,VALID,0,VALID,96.3371,VALID,0,VALID,20.9885,VALID,3,VALID,0.280859,
2010-05-16, 01:53:05,VALID,913.981,VALID,0,VALID,96.3752,VALID,0,VALID,20.9885,VALID,3,VALID,0.358984,
2010-05-16, 01:54:04,VALID,913.948,VALID,0,VALID,96.36,VALID,0,VALID,20.9885,VALID,3,VALID,0.184766,
2010-05-16, 01:55:04,VALID,913.941,VALID,0,VALID,96.3524,VALID,0,VALID,20.9885,VALID,3,VALID,0,
2010-05-16, 01:56:04,VALID,913.947,VALID,0,VALID,96.3676,VALID,0,VALID,21.0096,VALID,3,VALID,0,
2010-05-16, 01:57:04,VALID,913.963,VALID,0,VALID,96.3524,VALID,0,VALID,21.0096,VALID,3,VALID,0,
2010-05-16, 01:58:04,VALID,913.917,VALID,0,VALID,96.3524,VALID,0,VALID,20.9885,VALID,3,VALID,0.454297,
2010-05-16, 01:59:04,VALID,913.895,VALID,0,VALID,96.4057,VALID,0,VALID,21.0112,VALID,3,VALID,0.404297,
2010-05-16, 02:00:04,VALID,913.881,VALID,0,VALID,96.3981,VALID,0,VALID,21.0112,VALID,3,VALID,0.479297,
2010-05-16, 02:01:04,VALID,913.884,VALID,0,VALID,96.4286,VALID,0,VALID,21.0096,VALID,3,VALID,0.798828,
2010-05-16, 02:02:04,VALID,913.84,VALID,0,VALID,96.4057,VALID,0,VALID,21.0307,VALID,3,VALID,0.799219,
2010-05-16, 02:03:04,VALID,913.867,VALID,0,VALID,96.3676,VALID,0,VALID,21.0096,VALID,3,VALID,0.699219,
2010-05-16, 02:04:04,VALID,913.827,VALID,0,VALID,96.3829,VALID,0,VALID,21.0096,VALID,3,VALID,0.555469,
2010-05-16, 02:05:04,VALID,913.77,VALID,0,VALID,96.4362,VALID,0,VALID,21.0096,VALID,3,VALID,0.930469,
2010-05-16, 02:06:04,VALID,913.823,VALID,0,VALID,96.4133,VALID,0,VALID,21.0502,VALID,3,VALID,0.761328,
2010-05-16, 02:07:04,VALID,913.745,VALID,0,VALID,96.3752,VALID,0,VALID,21.0096,VALID,3,VALID,1.17266,
2010-05-16, 02:08:04,VALID,913.75,VALID,0,VALID,96.3829,VALID,0,VALID,21.0096,VALID,3,VALID,1.19844,
2010-05-16, 02:09:04,VALID,913.769,VALID,0,VALID,96.3676,VALID,0,VALID,21.0096,VALID,3,VALID,0.690234,
2010-05-16, 02:10:04,VALID,913.743,VALID,0,VALID,96.3752,VALID,0,VALID,20.9901,VALID,2,VALID,0.930859,
2010-05-16, 02:11:04,VALID,913.736,VALID,0,VALID,96.421,VALID,0,VALID,21.0096,VALID,2,VALID,0.889844,
2010-05-16, 02:12:04,VALID,913.754,VALID,0,VALID,96.3981,VALID,0,VALID,20.9901,VALID,2,VALID,0.780469,
2010-05-16, 02:13:04,VALID,913.703,VALID,0,VALID,96.421,VALID,0,VALID,20.9917,VALID,2,VALID,0.664453,
2010-05-16, 02:14:04,VALID,913.744,VALID,0,VALID,96.4515,VALID,0,VALID,20.9901,VALID,2,VALID,0.820313,
2010-05-16, 02:15:04,VALID,913.717,VALID,0,VALID,96.4515,VALID,0,VALID,20.9901,VALID,337,VALID,0.958594,
2010-05-16, 02:16:04,VALID,913.726,VALID,0,VALID,96.4515,VALID,0,VALID,20.9706,VALID,350,VALID,0.961328,
2010-05-16, 02:17:04,VALID,913.69,VALID,0,VALID,96.4896,VALID,0,VALID,20.9901,VALID,350,VALID,0.906641,
2010-05-16, 02:18:04,VALID,913.704,VALID,0,VALID,96.5048,VALID,0,VALID,20.9901,VALID,350,VALID,0.917969,
2010-05-16, 02:19:04,VALID,913.707,VALID,0,VALID,96.5277,VALID,0,VALID,20.9901,VALID,350,VALID,0.612891,
2010-05-16, 02:20:04,VALID,913.691,VALID,0,VALID,96.5277,VALID,0,VALID,20.9901,VALID,350,VALID,0.946875,
2010-05-16, 02:21:04,VALID,913.671,VALID,0,VALID,96.5048,VALID,0,VALID,20.9917,VALID,350,VALID,1.04102,
2010-05-16, 02:22:04,VALID,913.723,VALID,0,VALID,96.4743,VALID,0,VALID,20.9706,VALID,350,VALID,0.560547,
2010-05-16, 02:23:04,VALID,913.67,VALID,0,VALID,96.5124,VALID,0,VALID,20.9706,VALID,350,VALID,0.335547,
2010-05-16, 02:24:04,VALID,913.646,VALID,0,VALID,96.5277,VALID,0,VALID,20.9511,VALID,350,VALID,0.770312,
2010-05-16, 02:25:04,VALID,913.656,VALID,0,VALID,96.5277,VALID,0,VALID,20.9722,VALID,350,VALID,0.459375,
2010-05-16, 02:26:04,VALID,913.692,VALID,0,VALID,96.5353,VALID,0,VALID,20.9511,VALID,350,VALID,0.0414063,
2010-05-16, 02:27:04,VALID,913.696,VALID,0,VALID,96.5506,VALID,0,VALID,20.9706,VALID,350,VALID,0.475781,
2010-05-16, 02:28:04,VALID,913.726,VALID,0,VALID,96.5506,VALID,0,VALID,20.9722,VALID,292,VALID,0.359766,
2010-05-16, 02:29:04,VALID,913.68,VALID,0,VALID,96.5506,VALID,0,VALID,20.9495,VALID,292,VALID,0.00117188,
2010-05-16, 02:30:04,VALID,913.665,VALID,0,VALID,96.5506,VALID,0,VALID,20.9511,VALID,292,VALID,0.732031,
2010-05-16, 02:31:04,VALID,913.687,VALID,0,VALID,96.5506,VALID,0,VALID,20.93,VALID,292,VALID,0.383203,
2010-05-16, 02:32:04,VALID,913.648,VALID,0,VALID,96.5277,VALID,0,VALID,20.93,VALID,292,VALID,0.109375,
2010-05-16, 02:33:04,VALID,913.665,VALID,0,VALID,96.5506,VALID,0,VALID,20.9105,VALID,292,VALID,0,
2010-05-16, 02:34:04,VALID,913.668,VALID,0,VALID,96.5963,VALID,0,VALID,20.9316,VALID,292,VALID,0.202734,
2010-05-16, 02:35:04,VALID,913.656,VALID,0,VALID,96.6115,VALID,0,VALID,20.891,VALID,292,VALID,0.211719,
2010-05-16, 02:36:04,VALID,913.644,VALID,0,VALID,96.5429,VALID,0,VALID,20.8714,VALID,292,VALID,0.751562,
2010-05-16, 02:37:04,VALID,913.591,VALID,0,VALID,96.5429,VALID,0,VALID,20.873,VALID,293,VALID,0.638281,
2010-05-16, 02:38:04,VALID,913.617,VALID,0,VALID,96.5124,VALID,0.107441,VALID,20.891,VALID,293,VALID,0.450391,
2010-05-16, 02:39:04,VALID,913.591,VALID,0,VALID,96.4743,VALID,0,VALID,20.891,VALID,293,VALID,0.239453,
2010-05-16, 02:40:04,VALID,913.552,VALID,0,VALID,96.4515,VALID,0,VALID,20.8925,VALID,293,VALID,0,
2010-05-16, 02:41:04,VALID,913.577,VALID,0,VALID,96.4362,VALID,0.107441,VALID,20.891,VALID,293,VALID,0,
2010-05-16, 02:42:04,VALID,913.595,VALID,0,VALID,96.4286,VALID,0.107441,VALID,20.912,VALID,293,VALID,0,
2010-05-16, 02:43:04,VALID,913.609,VALID,0,VALID,96.421,VALID,0,VALID,20.8714,VALID,293,VALID,0.487891,
2010-05-16, 02:44:04,VALID,913.616,VALID,0,VALID,96.421,VALID,0,VALID,20.8535,VALID,293,VALID,0.205469,
2010-05-16, 02:45:04,VALID,913.567,VALID,0,VALID,96.4515,VALID,0,VALID,20.8746,VALID,293,VALID,0.133203,
2010-05-16, 02:46:04,VALID,913.56,VALID,0,VALID,96.4286,VALID,0,VALID,20.8551,VALID,293,VALID,0.873828,
2010-05-16, 02:47:04,VALID,913.567,VALID,0,VALID,96.4515,VALID,0,VALID,20.8356,VALID,293,VALID,0.882422,
2010-05-16, 02:48:04,VALID,913.58,VALID,0,VALID,96.3981,VALID,0,VALID,20.7966,VALID,4,VALID,1.06602,
2010-05-16, 02:49:04,VALID,913.566,VALID,0,VALID,96.421,VALID,0,VALID,20.7755,VALID,4,VALID,0.193359,
2010-05-16, 02:50:04,VALID,913.545,VALID,0,VALID,96.4515,VALID,0,VALID,20.756,VALID,4,VALID,0,
2010-05-16, 02:51:04,VALID,913.595,VALID,0,VALID,96.4591,VALID,0,VALID,20.7365,VALID,4,VALID,0.176563,
2010-05-16, 02:52:04,VALID,913.548,VALID,0,VALID,96.4743,VALID,0,VALID,20.7365,VALID,4,VALID,0,
2010-05-16, 02:53:04,VALID,913.569,VALID,0,VALID,96.5048,VALID,0,VALID,20.7381,VALID,4,VALID,0.344141,
2010-05-16, 02:54:04,VALID,913.575,VALID,0,VALID,96.5506,VALID,0,VALID,20.7381,VALID,4,VALID,0.241406,
2010-05-16, 02:55:04,VALID,913.535,VALID,0,VALID,96.5734,VALID,0,VALID,20.717,VALID,4,VALID,0,
2010-05-16, 02:56:04,VALID,913.551,VALID,0,VALID,96.5658,VALID,0,VALID,20.6975,VALID,4,VALID,0.405469,
2010-05-16, 02:57:04,VALID,913.512,VALID,0,VALID,96.5963,VALID,0,VALID,20.678,VALID,4,VALID,0.555859,
2010-05-16, 02:58:04,VALID,913.503,VALID,0,VALID,96.5811,VALID,0,VALID,20.6795,VALID,4,VALID,0.853125,
2010-05-16, 02:59:04,VALID,913.508,VALID,0,VALID,96.6115,VALID,0,VALID,20.6374,VALID,4,VALID,0.712891,
2010-05-16, 03:00:04,VALID,913.516,VALID,0,VALID,96.6115,VALID,0,VALID,20.6179,VALID,4,VALID,0.832422,
2010-05-16, 03:01:04,VALID,913.527,VALID,0,VALID,96.6039,VALID,0.107441,VALID,20.6179,VALID,4,VALID,1.11875,
2010-05-16, 03:02:04,VALID,913.517,VALID,0,VALID,96.642,VALID,0.107441,VALID,20.6179,VALID,4,VALID,0.975391,
2010-05-16, 03:03:04,VALID,913.502,VALID,0,VALID,96.6268,VALID,0.107441,VALID,20.6179,VALID,4,VALID,0.508203,
2010-05-16, 03:04:04,VALID,913.501,VALID,0,VALID,96.6268,VALID,0.107441,VALID,20.639,VALID,4,VALID,0.353125,
2010-05-16, 03:05:04,VALID,913.485,VALID,0,VALID,96.5963,VALID,0,VALID,20.6569,VALID,4,VALID,0.0265625,
2010-05-16, 03:06:04,VALID,913.464,VALID,0,VALID,96.5658,VALID,0.107441,VALID,20.6569,VALID,4,VALID,0.278516,
2010-05-16, 03:07:04,VALID,913.465,VALID,0,VALID,96.5353,VALID,0.214882,VALID,20.678,VALID,4,VALID,0.555469,
2010-05-16, 03:08:04,VALID,913.458,VALID,0,VALID,96.4972,VALID,0.107441,VALID,20.6358,VALID,4,VALID,1.09063,
2010-05-16, 03:09:04,VALID,913.462,VALID,0,VALID,96.4133,VALID,0.107441,VALID,20.6764,VALID,29,VALID,0.842578,
2010-05-16, 03:10:04,VALID,913.479,VALID,0,VALID,96.3219,VALID,0.107441,VALID,20.717,VALID,29,VALID,1.00859,
2010-05-16, 03:11:04,VALID,913.48,VALID,0,VALID,96.2228,VALID,0,VALID,20.7154,VALID,29,VALID,1.18164,
2010-05-16, 03:12:04,VALID,913.48,VALID,0,VALID,96.0703,VALID,0.107441,VALID,20.7544,VALID,3,VALID,1.4625,
2010-05-16, 03:13:04,VALID,913.508,VALID,0,VALID,95.8797,VALID,0.107441,VALID,20.7349,VALID,337,VALID,1.46875,
2010-05-16, 03:14:04,VALID,913.506,VALID,0,VALID,95.5976,VALID,0.107441,VALID,20.795,VALID,329,VALID,1.85117,
2010-05-16, 03:15:04,VALID,913.489,VALID,0,VALID,95.186,VALID,0,VALID,20.8519,VALID,329,VALID,1.1625,
2010-05-16, 03:16:04,VALID,913.544,VALID,0,VALID,94.7667,VALID,0.107441,VALID,20.891,VALID,9,VALID,1.14922,
2010-05-16, 03:17:04,VALID,913.547,VALID,0,VALID,94.3321,VALID,0,VALID,20.9105,VALID,16,VALID,1.72227,
2010-05-16, 03:18:04,VALID,913.541,VALID,0,VALID,94.1263,VALID,0,VALID,20.9706,VALID,1,VALID,0.930078,
2010-05-16, 03:19:04,VALID,913.518,VALID,0,VALID,94.0196,VALID,0.107441,VALID,20.9495,VALID,1,VALID,0.6375,
2010-05-16, 03:20:04,VALID,913.548,VALID,0,VALID,93.6232,VALID,0,VALID,20.969,VALID,338,VALID,1.16484,
2010-05-16, 03:21:04,VALID,913.528,VALID,0,VALID,93.4707,VALID,0.107441,VALID,21.008,VALID,338,VALID,0.462109,
2010-05-16, 03:22:04,VALID,913.503,VALID,0,VALID,93.5088,VALID,0.107441,VALID,21.008,VALID,338,VALID,0.303906,
2010-05-16, 03:23:04,VALID,913.55,VALID,0,VALID,93.6384,VALID,0.107441,VALID,21.008,VALID,338,VALID,0.398828,
2010-05-16, 03:24:04,VALID,913.541,VALID,0,VALID,93.4555,VALID,0,VALID,20.9885,VALID,338,VALID,0.670703,
2010-05-16, 03:25:04,VALID,913.495,VALID,0,VALID,93.3716,VALID,0,VALID,20.9885,VALID,338,VALID,0.941797,
2010-05-16, 03:26:04,VALID,913.473,VALID,0,VALID,93.4097,VALID,0.107441,VALID,20.969,VALID,3,VALID,1.20391,
2010-05-16, 03:27:04,VALID,913.463,VALID,0,VALID,93.303,VALID,0.107441,VALID,20.969,VALID,3,VALID,0.901563,
2010-05-16, 03:28:04,VALID,913.447,VALID,0,VALID,93.364,VALID,0.107441,VALID,20.9495,VALID,3,VALID,0.4625,
2010-05-16, 03:29:04,VALID,913.471,VALID,0,VALID,92.9294,VALID,0,VALID,20.9316,VALID,339,VALID,1.58008,
2010-05-16, 03:30:04,VALID,913.485,VALID,0,VALID,92.5254,VALID,0,VALID,20.9901,VALID,276,VALID,1.12812,
2010-05-16, 03:31:04,VALID,913.469,VALID,0,VALID,92.3119,VALID,0,VALID,21.0697,VALID,276,VALID,1.36523,
2010-05-16, 03:32:04,VALID,913.443,VALID,0,VALID,92.1214,VALID,0,VALID,21.1087,VALID,14,VALID,1.60312,
2010-05-16, 03:33:04,VALID,913.459,VALID,0,VALID,92.3577,VALID,0,VALID,21.0876,VALID,14,VALID,0.801953,
2010-05-16, 03:34:04,VALID,913.496,VALID,0,VALID,92.4263,VALID,0,VALID,21.0681,VALID,341,VALID,1.06719,
2010-05-16, 03:35:04,VALID,913.487,VALID,0,VALID,92.6245,VALID,0,VALID,21.0486,VALID,341,VALID,0.764063,
2010-05-16, 03:36:04,VALID,913.475,VALID,0,VALID,92.6474,VALID,0,VALID,21.0307,VALID,344,VALID,1.1875,
2010-05-16, 03:37:04,VALID,913.529,VALID,0,VALID,92.8685,VALID,0,VALID,21.0112,VALID,344,VALID,0.644141,
2010-05-16, 03:38:04,VALID,913.513,VALID,0,VALID,92.9066,VALID,0,VALID,20.9511,VALID,315,VALID,0.125781,
2010-05-16, 03:39:04,VALID,913.544,VALID,0,VALID,93.181,VALID,0,VALID,20.9316,VALID,315,VALID,0.375781,
2010-05-16, 03:40:04,VALID,913.521,VALID,0,VALID,93.0667,VALID,0,VALID,20.9331,VALID,315,VALID,0.792188,
2010-05-16, 03:41:04,VALID,913.505,VALID,0,VALID,93.1048,VALID,0,VALID,20.9316,VALID,20,VALID,1.40508,
2010-05-16, 03:42:04,VALID,913.505,VALID,0,VALID,93.1276,VALID,0,VALID,20.9316,VALID,2,VALID,1.2625,
2010-05-16, 03:43:04,VALID,913.508,VALID,0,VALID,93.2572,VALID,0,VALID,20.9331,VALID,353,VALID,0.794922,
2010-05-16, 03:44:04,VALID,913.519,VALID,0,VALID,93.4555,VALID,0,VALID,20.8925,VALID,353,VALID,0.423047,
2010-05-16, 03:45:04,VALID,913.528,VALID,0,VALID,93.646,VALID,0,VALID,20.8925,VALID,352,VALID,0.596875,
2010-05-16, 03:46:04,VALID,913.561,VALID,0,VALID,93.707,VALID,0,VALID,20.8925,VALID,243,VALID,0.206641,